Regional Weather Roundup
Issued by NWS

Home | Current Version | Previous Version | Graphics & Text | Print | Product List | Glossary On
Versions: 1 2 3 4 5 6 7 8 9 10 11 12 13 14 15 16 17 18 19 20 21 22 23 24 25 26 27
000
ASUS45 KBOU 272007
RWRCO

WEATHER ROUNDUP FOR COLORADO
NATIONAL WEATHER SERVICE DENVER/BOULDER CO
200 PM MDT SAT AUG 27 2016

NOTE: "FAIR" INDICATES FEW OR NO CLOUDS BELOW 12000 FEET WITH NO
SIGNIFICANT WEATHER AND/OR OBSTRUCTIONS TO VISIBILITY.

COZ001>005-013-030-031-272100-
...NORTHWEST COLORADO...

CITY           SKY/WX    TMP DP  RH WIND       PRES   REMARKS
CRAIG          FAIR      78  26  14 W12G17    30.18F
HAYDEN         FAIR      73  30  20 NW7G18    30.21S
MEEKER         FAIR      75  36  24 W9        30.19F
MOUNT WERNER   NOT AVBL
STEAMBOAT SPGS FAIR      71  32  23 W9G20     30.22F
WALDEN         FAIR      70  27  19 SW15G21   30.30S
$$

COZ006>008-011-272100-
...WEST CENTRAL VALLEYS...

CITY           SKY/WX    TMP DP  RH WIND       PRES   REMARKS
GRAND JUNCTION FAIR      76  46  34 SW10      30.13F
MONTROSE       PTSUNNY   72  43  35 SW6       30.19S
EAGLE          MOSUNNY   72  36  26 S8        30.23F
RIFLE          PTSUNNY   70  48  45 NE8       30.17F
DELTA          NOT AVBL
NUCLA          PTSUNNY  N/A N/A N/A E7        30.23S
$$

COZ017>023-064>068-272100-
...SOUTHWEST COLORADO...

CITY           SKY/WX    TMP DP  RH WIND       PRES   REMARKS
DURANGO        FAIR      72  42  34 N6        30.22F
CORTEZ         FAIR      73  48  41 NW8G23    30.19S
PAGOSA SPRINGS FAIR      70  33  26 S5        30.29F
TELLURIDE      LGT RAIN  52  45  77 SW6       30.41S
WOLF CREEK PAS CLOUDY    46  34  61 S16G25    30.57S
$$

COZ009-010-012-014-032>034-037-058>063-272100-
...CENTRAL COLORADO...

CITY           SKY/WX    TMP DP  RH WIND       PRES   REMARKS
ASPEN          PTSUNNY   63  40  42 N12G20    30.30R
BUENA VISTA    PTSUNNY   67  33  28 SE6       30.28S
COPPER MTN     CLOUDY    48  32  53 NW8       30.55R
BERTHOUD PASS  CLOUDY    43  30  61 N9G20     30.58S
COTTONWOOD PAS CLOUDY    59  30  33 SW10G21   30.41S
GUNNISON       FAIR      64  39  39 N10       30.30F
KREMMLING      FAIR      73  27  17 W13G18    30.25F
LEADVILLE      LGT RAIN  53  33  46 SE5       30.40F
MONARCH PASS   PTSUNNY   50  30  46 W17G24    30.64S
SALIDA         FAIR      71  35  27 S12       30.32S
SUNLIGHT       CLOUDY    46  41  81 E3        30.53R
WILKERSON PASS FAIR      59  32  36 W3        30.52S
$$

COZ069>075-272100-
...SAN LUIS VALLEY/SANGRE DE CRISTO MOUNTAINS...

CITY           SKY/WX    TMP DP  RH WIND       PRES   REMARKS
ALAMOSA        FAIR      73  36  25 S7        30.25F
LA VETA PASS   FAIR      64  32  29 S7        30.43F
SAGUACHE       CLOUDY    63  39  42 NW18      30.31S
$$

COZ035-036-038>040-272100-
...NORTHERN COLORADO FRONT RANGE...

CITY           SKY/WX    TMP DP  RH WIND       PRES   REMARKS
DENVER INTL AP FAIR      81  34  18 SE12      30.11F
DMNS CITY PARK   N/A     79  35  20 N2G9      30.10F
AURORA         MOSUNNY   79  33  18 S6        30.12F
FRONT RANGE AP MOSUNNY   81  34  18 E8G18     30.13F
ERIE MUNI ARPT FAIR      83  30  14 SE6       30.08F
BOULDER MUN AP FAIR      82  34  17 E3        30.08F
CENTENNIAL     FAIR      78  29  16 E6        30.14F
BROOMFIELD     MOSUNNY   81  34  18 SE7       30.13F
FORT COLLINS   FAIR      82  39  21 SE12G23   30.05F
LONGMONT       FAIR      85  35  16 E8        30.09F
$$

COZ041-046-047-076>085-087-088-272100-
...PIKES PEAK/PALMER DIVIDE AND SOUTHERN FOOTHILLS...

CITY           SKY/WX    TMP DP  RH WIND       PRES   REMARKS
COLO. SPRINGS  PTSUNNY   78  35  21 SW6       30.16F
A. F. ACADEMY  CLOUDY    74  34  23 E5        30.16F
SCHRIEVER AFB  NOT AVBL
ELLICOTT       NOT AVBL
FALCON         FAIR      77  31  18 CALM      30.21F
FORT CARSON    MOSUNNY   79  39  24 VRB1      30.12F
LIMON          FAIR      78  47  33 SE10      30.11F
MONUMENT HILL  PTSUNNY   70  32  24 CALM      30.24S
TRINIDAD       FAIR      83  38  20 NE10      30.11F
$$

COZ042>045-048>051-090-091-272100-
...NORTHEAST COLORADO...

CITY           SKY/WX    TMP DP  RH WIND       PRES   REMARKS
GREELEY ARPT   FAIR      81  43  26 SE8       30.08S
AKRON          PTSUNNY   81  50  33 MISG      30.07F
BURLINGTON     FAIR      81  51  35 E14       30.06F
WRAY           FAIR      82  55  39 S9        30.04F
STERLING       FAIR      82  43  24 CALM      30.03F
HOLYOKE        FAIR      81  61  50 S9        30.05F
FORT MORGAN    FAIR      82  40  21 S3        30.07F
$$

COZ086-089-092>099-272100-
...SOUTHEAST COLORADO...

CITY           SKY/WX    TMP DP  RH WIND       PRES   REMARKS
PUEBLO         FAIR      88  33  14 S7G18     30.04F
LA JUNTA       FAIR      87  43  21 VRB3      30.03F
LAMAR          FAIR      88  52  29 SE9G16    30.00F
SPRINGFIELD      N/A     82  56  40 SE6       30.05F
$$




USA.gov is the U.S. government's official web portal to all federal, state and local government web resources and services.